Location: Chatham
(39.6760°N, 89.7040°W)
Time: 01:18:27
(UTC-05:00)

Tiangong 2 - Visible Passes

Search period start: 20 July 2018 00:00
Search period end: 30 July 2018 00:00
Orbit: 386 x 394 km, 42.8° (Epoch: 19 July)

Date Brightness Start Highest point End Pass type
(mag) Time Alt. Az. Time Alt. Az. Time Alt. Az.
20 Jul 0.9 22:12:34 10° WNW 22:15:45 79° SSW 22:16:01 71° SE visible
21 Jul 1.2 21:14:51 10° WNW 21:18:02 71° NNE 21:20:44 14° E visible
21 Jul 3.5 22:52:01 10° W 22:53:03 17° WSW 22:53:03 17° WSW visible
22 Jul 1.6 21:54:05 10° W 21:57:08 44° SSW 21:57:47 38° S visible
23 Jul 1.1 20:56:18 10° WNW 20:59:28 73° SSW 21:02:32 11° ESE visible
23 Jul 3.8 22:34:10 10° WSW 22:34:52 12° WSW 22:34:52 12° WSW visible
24 Jul 2.7 21:35:46 10° W 21:38:24 24° SSW 21:39:40 19° S visible
26 Jul 3.6 21:18:02 10° WSW 21:19:34 13° SW 21:21:04 10° S visible
